�������C�����ː����j�^�v���󋵏��
Date,Time,Cs137(Bq/L),Cs134(Bq/L),�S��(Bq/L)
2016/10/17,00:00,0.70,0.075,ND
2016/10/17,00:10,0.68,0.068,ND
2016/10/17,00:20,0.62,0.056,ND
2016/10/17,00:30,0.60,0.061,ND
2016/10/17,00:40,0.61,0.079,ND
2016/10/17,00:50,0.58,0.061,ND
2016/10/17,01:00,0.57,0.046,ND
2016/10/17,01:10,0.56,0.041,ND
2016/10/17,01:20,0.59,0.056,ND
2016/10/17,01:30,0.59,0.061,ND
2016/10/17,01:40,0.56,0.044,ND
2016/10/17,01:50,0.59,0.059,ND
2016/10/17,02:00,0.61,0.055,ND
2016/10/17,02:10,0.57,0.060,ND
2016/10/17,02:20,0.59,0.053,ND
2016/10/17,02:30,0.58,0.052,ND
2016/10/17,02:40,0.57,0.056,ND
2016/10/17,02:50,0.55,0.060,ND
2016/10/17,03:00,0.55,0.054,ND
2016/10/17,03:10,0.55,0.049,ND
2016/10/17,03:20,0.54,0.049,ND
2016/10/17,03:30,0.56,0.055,ND
2016/10/17,03:40,0.60,0.068,ND
2016/10/17,03:50,0.61,0.073,ND
2016/10/17,04:00,0.57,0.067,ND
2016/10/17,04:10,0.59,0.068,ND
2016/10/17,04:20,0.61,0.073,ND
2016/10/17,04:30,0.62,0.071,ND
2016/10/17,04:40,0.65,0.074,ND
2016/10/17,04:50,0.68,0.069,ND
2016/10/17,05:00,0.71,0.070,ND
2016/10/17,05:10,0.70,0.073,ND
2016/10/17,05:20,0.70,0.079,ND
2016/10/17,05:30,0.71,0.075,ND
2016/10/17,05:40,0.67,0.079,ND
2016/10/17,05:50,0.65,0.081,ND
2016/10/17,06:00,0.67,0.081,ND
2016/10/17,06:10,0.69,0.081,ND
2016/10/17,06:20,0.72,0.075,ND
2016/10/17,06:30,0.73,0.070,ND
2016/10/17,06:40,0.77,0.071,ND
2016/10/17,06:50,0.80,0.080,ND
2016/10/17,07:00,0.83,0.078,ND
2016/10/17,07:10,0.83,0.087,ND
2016/10/17,07:20,0.83,0.086,ND
2016/10/17,07:30,0.83,0.096,ND
2016/10/17,07:40,0.86,0.11,ND
2016/10/17,07:50,0.82,0.11,ND
2016/10/17,08:00,0.82,0.12,ND
2016/10/17,08:10,0.82,0.12,ND
2016/10/17,08:20,0.78,0.11,ND
2016/10/17,08:30,0.76,0.11,ND
2016/10/17,08:40,0.77,0.10,ND
2016/10/17,08:50,0.79,0.089,ND
2016/10/17,09:00,0.77,0.098,ND
2016/10/17,09:10,0.78,0.10,ND
2016/10/17,09:20,0.78,0.091,ND
2016/10/17,09:30,0.78,0.091,ND
2016/10/17,09:40,0.75,0.088,ND
2016/10/17,09:50,0.75,0.096,ND
2016/10/17,10:00,0.72,0.087,ND
2016/10/17,10:10,0.72,0.079,ND
2016/10/17,10:20,0.69,0.080,ND
2016/10/17,10:30,0.68,0.12,ND
2016/10/17,10:40,-,-,-
2016/10/17,10:50,-,-,-
2016/10/17,11:00,-,-,-
2016/10/17,11:10,-,-,-
2016/10/17,11:20,-,-,-
2016/10/17,11:30,-,-,-
2016/10/17,11:40,-,-,-
2016/10/17,11:50,-,-,-
2016/10/17,12:00,0.87,0.10,ND
2016/10/17,12:10,0.88,0.10,ND
2016/10/17,12:20,0.83,0.11,ND
2016/10/17,12:30,0.80,0.11,ND
2016/10/17,12:40,0.77,0.10,ND
2016/10/17,12:50,0.75,0.093,ND
2016/10/17,13:00,0.69,0.080,ND
2016/10/17,13:10,0.68,0.075,ND
2016/10/17,13:20,0.68,0.067,ND
2016/10/17,13:30,0.66,0.058,ND
2016/10/17,13:40,0.65,0.058,ND
2016/10/17,13:50,0.63,0.054,ND
2016/10/17,14:00,0.61,0.063,ND
2016/10/17,14:10,0.62,0.067,ND
2016/10/17,14:20,0.62,0.066,ND
2016/10/17,14:30,0.62,0.060,ND
2016/10/17,14:40,0.62,0.056,ND
2016/10/17,14:50,0.65,0.053,ND
2016/10/17,15:00,0.67,0.047,ND
2016/10/17,15:10,0.67,0.046,ND
2016/10/17,15:20,0.68,0.043,ND
2016/10/17,15:30,0.68,0.055,ND
2016/10/17,15:40,0.67,0.058,ND
2016/10/17,15:50,0.66,0.069,ND
2016/10/17,16:00,0.65,0.076,ND
2016/10/17,16:10,0.63,0.072,ND
2016/10/17,16:20,0.62,0.082,ND
2016/10/17,16:30,0.62,0.085,ND
2016/10/17,16:40,0.60,0.086,ND
2016/10/17,16:50,0.62,0.072,ND
2016/10/17,17:00,0.62,0.058,ND
2016/10/17,17:10,0.60,0.11,ND
2016/10/17,17:20,0.64,0.061,ND
2016/10/17,17:30,0.66,0.059,ND
2016/10/17,17:40,0.70,0.062,ND
2016/10/17,17:50,0.70,0.073,ND
2016/10/17,18:00,0.76,0.10,ND
2016/10/17,18:10,0.77,0.083,ND
2016/10/17,18:20,0.78,0.081,ND
2016/10/17,18:30,0.82,0.11,ND
2016/10/17,18:40,0.84,0.11,ND
2016/10/17,18:50,0.80,0.14,ND
2016/10/17,19:00,0.85,0.12,ND
2016/10/17,19:10,0.84,0.13,ND
2016/10/17,19:20,0.83,0.11,ND
2016/10/17,19:30,0.86,0.10,ND
2016/10/17,19:40,0.86,0.10,ND
2016/10/17,19:50,0.88,0.097,ND
2016/10/17,20:00,0.87,0.11,ND
2016/10/17,20:10,0.88,0.11,ND
2016/10/17,20:20,0.88,0.11,ND
2016/10/17,20:30,0.86,0.11,ND
2016/10/17,20:40,0.89,0.097,ND
2016/10/17,20:50,0.88,0.095,ND
2016/10/17,21:00,0.91,0.10,ND
2016/10/17,21:10,0.88,0.085,ND
2016/10/17,21:20,0.90,0.080,ND
2016/10/17,21:30,0.93,0.077,ND
2016/10/17,21:40,0.91,0.087,ND
2016/10/17,21:50,0.93,0.084,ND
2016/10/17,22:00,0.94,0.082,ND
2016/10/17,22:10,0.94,0.084,ND
2016/10/17,22:20,0.90,0.10,ND
2016/10/17,22:30,0.90,0.10,ND
2016/10/17,22:40,0.91,0.094,ND
2016/10/17,22:50,0.88,0.11,ND
2016/10/17,23:00,0.86,0.12,ND
2016/10/17,23:10,0.87,0.11,ND
2016/10/17,23:20,0.88,0.097,ND
2016/10/17,23:30,0.87,0.088,ND
2016/10/17,23:40,0.85,0.094,ND
2016/10/17,23:50,0.85,0.082,ND
